Location: UBC Liquid-Mirror Observatory
(49.2876°N, 122.5728°W)
Time: 07:09:10
(UTC-07:00)

Amateur Radio Satellites - All Passes

Search period start: 29 May 2015 06:39
Search period end: 30 May 2015 06:39
Location: UBC Liquid-Mirror Observatory, 49.2876°N, 122.5728°W

Satellite Date Start Highest point End Downlink Frequencies (MHz)
Time Altitude Azimuth
YUBILEINY 29 May 06:39:41 06:46:48 30° 82° (E) 06:54:06 435.215
Cubesat XI-IV 29 May 06:43:27 06:47:54 26° 92° (E) 06:52:26 437.490
AO-7 29 May 06:46:18 06:54:19 51° 300° (WNW) 07:02:16 29.400- 29.500
CUBESAT XI-V 29 May 07:13:39 07:18:01 40° 263° (W) 07:22:24 437.345
JAS-2 29 May 07:26:47 07:28:43 12° 309° (NW) 07:30:26 435.910
PRISM 29 May 07:31:44 07:35:42 47° 260° (W) 07:39:41 437.425
SO-50 29 May 07:34:02 07:36:31 14° 358° (N) 07:39:01 436.795
Cosmos 2491 29 May 07:39:30 07:48:07 57° 269° (W) 07:56:35 435.465 / 435.565
BRITE-PL 29 May 07:39:48 07:41:28 11° 79° (E) 07:43:27 437.365/2234.400
M-CUBED/EXP-1 PRIME 29 May 07:42:39 07:46:36 49° 254° (WSW) 07:50:17 437.505
AUBIESAT-1 29 May 07:48:23 07:52:18 48° 254° (WSW) 07:55:56 437.475
STRAND 1 29 May 07:55:09 07:59:56 40° 263° (W) 08:04:46 437.568
AIST 1 29 May 08:00:03 08:04:28 84° 261° (W) 08:08:52
CUTE-I 29 May 08:01:34 08:06:58 77° 287° (WNW) 08:12:20 437.470
Cosmos 2504 29 May 08:17:06 08:18:30 11° 72° (ENE) 08:20:25 435.465 / 435.565
PCSat 29 May 08:22:08 08:26:59 32° 39° (NE) 08:31:50 145.827
Cubesat XI-IV 29 May 08:23:07 08:28:20 53° 292° (WNW) 08:33:32 437.490
HO-68 29 May 08:31:06 08:35:38 18° 85° (E) 08:40:27 435.675
YUBILEINY 29 May 08:34:14 08:42:59 72° 283° (WNW) 08:51:44 435.215
AO-7 29 May 08:40:22 08:45:22 17° 323° (NW) 08:50:06 29.400- 29.500
RS-15 29 May 08:41:49 08:51:44 45° 112° (ESE) 09:02:06 29.354- 29.394
GOMX 1 29 May 09:05:04 09:10:04 38° 94° (E) 09:14:50 467.674
CINEMA 3 29 May 09:13:11 09:15:42 15° 85° (E) 09:18:20 145.822/145.860
UNISAT 6 29 May 09:13:13 09:15:28 14° 58° (ENE) 09:17:52 437.425
SO-50 29 May 09:15:17 09:18:53 20° 22° (NNE) 09:22:32 436.795
BRITE-PL 29 May 09:15:31 09:21:12 69° 100° (E) 09:26:37 437.365/2234.400
CANX-2 29 May 09:21:46 09:25:34 32° 95° (E) 09:29:23 2200.000
CUTE 1.7 + AOD 2 29 May 09:24:55 09:28:42 31° 95° (E) 09:32:29 437.475
POPSAT HIP 1 29 May 09:37:08 09:37:28 10° 55° (NE) 09:38:01 437.405
Cosmos 2491 29 May 09:39:35 09:43:08 13° 290° (WNW) 09:46:05 435.465 / 435.565
CUTE-I 29 May 09:43:11 09:46:16 15° 306° (NW) 09:49:11 437.470
SEEDS 29 May 09:43:15 09:47:12 40° 97° (E) 09:51:10 437.485
Oscar 11 29 May 09:43:30 09:45:56 15° 87° (E) 09:48:31 145.826/435.025
CUBEBUG 2 29 May 09:47:01 09:49:33 15° 86° (E) 09:52:13 437.445
COMPASS 1 29 May 09:52:13 09:56:09 40° 97° (E) 10:00:05 437.405
DOVE 4 29 May 09:53:02 09:58:11 65° 100° (E) 10:03:01 437.250
ANTELSAT 29 May 09:54:32 09:58:32 30° 66° (ENE) 10:02:33 437.575/2403.000
AAUSAT CUBESAT 2 29 May 10:02:02 10:06:01 44° 98° (E) 10:09:59 437.432
Cosmos 2504 29 May 10:02:32 10:10:24 55° 92° (E) 10:17:48 435.465 / 435.565
PCSat 29 May 10:05:25 10:10:47 60° 240° (WSW) 10:16:05 145.827
Cubesat XI-IV 29 May 10:06:03 10:07:24 11° 311° (NW) 10:08:29 437.490
DELFI C3 29 May 10:12:03 10:15:02 20° 91° (E) 10:18:05 145.870
HO-68 29 May 10:17:22 10:24:35 83° 107° (ESE) 10:31:45 435.675
QB50P1 29 May 10:17:26 10:20:47 23° 64° (ENE) 10:24:14 145.935-145.965
POLYITAN 1 29 May 10:20:46 10:24:17 25° 64° (ENE) 10:27:52 437.675
TIGRISAT 29 May 10:25:27 10:29:59 53° 71° (ENE) 10:34:30 435.000
UWE-3 29 May 10:27:49 10:31:41 30° 94° (E) 10:35:29 435.000/436.395/437.385
FUNcube-1 29 May 10:30:46 10:34:21 25° 92° (E) 10:37:54 145.935
YUBILEINY 29 May 10:35:39 10:41:48 20° 309° (NW) 10:47:38 435.215
GOMX 1 29 May 10:43:13 10:48:10 37° 294° (WNW) 10:52:51 467.674
HUMSAT D 29 May 10:45:04 10:47:48 17° 89° (E) 10:50:36 437.325/437.525
UNISAT 6 29 May 10:46:57 10:51:38 86° 75° (ENE) 10:56:16 437.425
NANOSAT C BR1 29 May 10:46:57 10:50:58 41° 69° (ENE) 10:55:03 145.865
CINEMA 3 29 May 10:48:50 10:53:37 76° 286° (WNW) 10:58:08 145.822/145.860
RS-15 29 May 10:52:46 11:03:42 69° 318° (NW) 11:15:04 29.354- 29.394
BRITE-PL 29 May 10:54:44 10:59:13 24° 300° (WNW) 11:03:28 437.365/2234.400
SO-50 29 May 10:55:31 11:00:26 59° 45° (NE) 11:05:19 436.795
QB50P2 29 May 10:56:50 11:01:02 53° 71° (ENE) 11:05:15 145.880/145.840
CANX-2 29 May 10:57:47 11:01:27 29° 293° (WNW) 11:05:04 2200.000
CUTE 1.7 + AOD 2 29 May 11:00:53 11:04:35 29° 293° (WNW) 11:08:13 437.475
50 SAT 29 May 11:04:06 11:06:16 15° 89° (E) 11:08:32 437.505
DUCHIFAT 1 29 May 11:08:01 11:12:16 66° 72° (ENE) 11:16:32 145.980
POPSAT HIP 1 29 May 11:08:19 11:12:36 68° 73° (ENE) 11:16:54 437.405
UKube-1 29 May 11:08:28 11:12:12 27° 94° (E) 11:15:59 .
ZACube-1 29 May 11:12:03 11:16:24 66° 101° (E) 11:20:36 437.345
GONETS M04 29 May 11:15:30 11:17:03 11° 68° (ENE) 11:19:15
Oscar 11 29 May 11:18:20 11:22:38 65° 287° (WNW) 11:26:53 145.826/435.025
BUGSAT 1 29 May 11:18:52 11:22:59 60° 72° (ENE) 11:27:12 437.445
SEEDS 29 May 11:19:27 11:22:50 24° 295° (WNW) 11:26:09 437.485
DX 1 29 May 11:21:02 11:25:10 39° 98° (E) 11:29:18 434.975-435.025
CUBEBUG 2 29 May 11:22:22 11:26:50 66° 287° (WNW) 11:31:07 437.445
COMPASS 1 29 May 11:28:18 11:31:39 23° 295° (WNW) 11:34:55 437.405
ANTELSAT 29 May 11:30:52 11:35:14 38° 263° (W) 11:39:33 437.575/2403.000
DOVE 4 29 May 11:31:34 11:35:27 22° 300° (WNW) 11:39:06 437.250
CUBEBUG 1 29 May 11:36:47 11:39:45 18° 89° (E) 11:42:51 437.445
AAUSAT CUBESAT 2 29 May 11:38:11 11:41:23 22° 296° (WNW) 11:44:31 437.432
Oscar 19 29 May 11:39:27 11:40:38 11° 51° (NE) 11:42:03 437.125/150
VELOX 1 29 May 11:45:44 11:49:54 37° 97° (E) 11:54:04 145.980
DELFI C3 29 May 11:46:33 11:50:22 42° 290° (WNW) 11:54:09 145.870
QB50P1 29 May 11:52:19 11:56:26 44° 262° (W) 12:00:35 145.935-145.965
POLYITAN 1 29 May 11:55:56 12:00:01 40° 262° (W) 12:04:08 437.675
Cosmos 2504 29 May 11:56:40 12:04:07 38° 293° (WNW) 12:11:03 435.465 / 435.565
DANDE 29 May 11:58:55 12:04:29 23° 79° (E) 12:10:44 436.750
ESTCUBE 1 29 May 11:59:22 12:03:26 32° 95° (E) 12:07:33 437.505/2401.250
TIGRISAT 29 May 12:03:29 12:07:04 21° 269° (W) 12:10:30 435.000
UWE-3 29 May 12:04:17 12:08:15 32° 293° (WNW) 12:12:04 435.000/436.395/437.385
HO-68 29 May 12:05:54 12:11:40 26° 307° (NW) 12:17:15 435.675
FUNcube-1 29 May 12:06:47 12:10:49 37° 292° (WNW) 12:14:43 145.935
SPROUT 29 May 12:06:54 12:07:33 10° 84° (E) 12:08:26 437.525
CUSAT 1 29 May 12:10:16 12:16:55 32° 85° (E) 12:24:04 437.405
AISAT 29 May 12:18:12 12:22:44 78° 104° (ESE) 12:27:14 437.250
HUMSAT D 29 May 12:19:50 12:23:55 53° 289° (WNW) 12:27:55 437.325/437.525
NANOSAT C BR1 29 May 12:23:31 12:27:00 23° 268° (W) 12:30:25 145.865
UNISAT 6 29 May 12:26:50 12:29:06 13° 274° (W) 12:31:08 437.425
CINEMA 3 29 May 12:27:56 12:30:00 13° 305° (NW) 12:31:52 145.822/145.860
QB50P2 29 May 12:34:13 12:37:17 18° 270° (W) 12:40:15 145.880/145.840
SO-50 29 May 12:36:33 12:40:43 27° 244° (WSW) 12:44:46 436.795
50 SAT 29 May 12:37:33 12:41:22 55° 288° (WNW) 12:45:08 437.505
UKube-1 29 May 12:44:25 12:48:26 36° 293° (WNW) 12:52:24 .
DUCHIFAT 1 29 May 12:46:00 12:48:34 15° 272° (W) 12:51:00 145.980
POPSAT HIP 1 29 May 12:46:29 12:48:59 15° 272° (W) 12:51:21 437.405
ZACube-1 29 May 12:49:29 12:52:18 17° 300° (WNW) 12:54:58 437.345
Gurwin Techsat 1B 29 May 12:51:49 12:54:29 14° 54° (NE) 12:57:20 435.225
BUGSAT 1 29 May 12:56:15 12:58:55 16° 272° (W) 13:01:28 437.445
DX 1 29 May 12:57:33 13:01:17 27° 296° (WNW) 13:04:57 434.975-435.025
CUBEBUG 2 29 May 13:02:02 13:02:41 10° 306° (NW) 13:03:07 437.445
GONETS M04 29 May 13:03:30 13:11:54 52° 90° (E) 13:20:23
RS-15 29 May 13:08:16 13:18:28 38° 349° (N) 13:29:03 29.354- 29.394
CUBEBUG 1 29 May 13:12:08 13:16:33 59° 288° (WNW) 13:20:54 437.445
Oscar 19 29 May 13:13:56 13:19:00 56° 70° (ENE) 13:24:07 437.125/150
VELOX 1 29 May 13:22:28 13:26:22 29° 295° (WNW) 13:30:12 145.980
ITAMSAT 1 29 May 13:34:59 13:39:25 30° 63° (ENE) 13:43:57 435.822/435.867
ESTCUBE 1 29 May 13:36:14 13:40:19 33° 294° (WNW) 13:44:21 437.505/2401.250
DANDE 29 May 13:38:53 13:46:36 83° 100° (E) 13:55:17 436.750
SPROUT 29 May 13:40:02 13:44:25 86° 104° (ESE) 13:48:45 437.525
CUSAT 1 29 May 13:51:13 13:59:05 72° 286° (WNW) 14:07:26 437.405
TISAT 1 29 May 13:52:17 13:56:36 85° 103° (ESE) 14:00:52 437.305
AISAT 29 May 13:56:02 13:58:47 16° 302° (WNW) 14:01:25 437.250
AO-7 29 May 14:06:45 14:13:10 27° 47° (NE) 14:19:48 29.400- 29.500
JAS-2 29 May 14:13:00 14:16:42 17° 56° (NE) 14:20:21 435.910
Cosmos 2499 29 May 14:24:52 14:31:29 32° 86° (E) 14:37:54 435.465 / 435.565
Gurwin Techsat 1B 29 May 14:28:23 14:33:40 74° 73° (ENE) 14:39:00 435.225
ITUPSAT 1 29 May 14:28:31 14:32:54 35° 96° (E) 14:37:19 437.325
BEESAT 29 May 14:34:17 14:38:47 40° 97° (E) 14:43:18 436.000
SWISSCUBE 29 May 14:43:10 14:47:52 52° 100° (E) 14:52:32 437.505
Oscar 19 29 May 14:54:33 14:58:45 24° 269° (W) 15:02:52 437.125/150
GONETS M04 29 May 15:00:36 15:09:00 44° 293° (WNW) 15:17:21
ITAMSAT 1 29 May 15:13:48 15:18:46 46° 261° (W) 15:23:47 435.822/435.867
SPROUT 29 May 15:17:41 15:19:56 14° 302° (WNW) 15:22:01 437.525
RS-15 29 May 15:23:38 15:34:17 44° 22° (NNE) 15:45:29 29.354- 29.394
HORYU 2 29 May 15:23:57 15:28:13 45° 69° (ENE) 15:32:30 437.375
DANDE 29 May 15:24:01 15:30:57 30° 303° (WNW) 15:38:12 436.750
KKS-1 29 May 15:28:36 15:32:25 27° 94° (E) 15:36:17 437.445
TISAT 1 29 May 15:29:36 15:31:49 14° 302° (WNW) 15:33:53 437.305
O/OREOS (USA 219) 29 May 15:31:42 15:35:56 42° 110° (ESE) 15:40:12 437.305
CUSAT 1 29 May 15:37:17 15:43:24 22° 309° (NW) 15:49:21 437.405
JAS-2 29 May 15:54:51 16:01:15 84° 75° (ENE) 16:06:57 435.910
AO-7 29 May 15:56:42 16:05:01 85° 68° (ENE) 16:13:25 29.400- 29.500
ITUPSAT 1 29 May 16:06:29 16:10:48 34° 294° (WNW) 16:15:04 437.325
Gurwin Techsat 1B 29 May 16:10:35 16:14:18 18° 272° (W) 16:17:51 435.225
BEESAT 29 May 16:12:22 16:16:32 30° 296° (WNW) 16:20:38 436.000
Cosmos 2499 29 May 16:16:29 16:24:19 61° 285° (WNW) 16:31:37 435.465 / 435.565
SWISSCUBE 29 May 16:21:35 16:25:26 24° 298° (WNW) 16:29:12 437.505
STARS 29 May 16:25:14 16:29:39 62° 101° (ESE) 16:34:02 437.465
Cubesat XI-IV 29 May 16:33:26 16:35:32 13° 51° (NE) 16:37:51 437.490
YUBILEINY 29 May 16:43:14 16:49:06 20° 51° (NE) 16:55:16 435.215
HORYU 2 29 May 17:01:29 17:05:06 23° 268° (W) 17:08:37 437.375
KKS-1 29 May 17:05:00 17:09:11 38° 292° (WNW) 17:13:18 437.445
GONETS M04 29 May 17:05:39 17:09:01 12° 321° (NW) 17:11:56
BEESAT 2 29 May 17:07:21 17:09:19 13° 112° (ESE) 17:11:27 435.950
O/OREOS (USA 219) 29 May 17:11:36 17:15:31 28° 309° (NW) 17:19:25 437.305
MOZHAYETS 4 29 May 17:18:40 17:22:51 34° 95° (E) 17:27:02
RS-15 29 May 17:36:45 17:48:21 88° 52° (NE) 18:00:28 29.354- 29.394
JAS-2 29 May 17:42:46 17:47:03 18° 272° (W) 17:50:49 435.910
CUTE-I 29 May 17:48:16 17:53:14 43° 66° (ENE) 17:58:17 437.470
BEESAT 3 29 May 17:50:06 17:53:55 39° 121° (ESE) 17:57:48 437.485
AO-7 29 May 17:52:16 17:58:56 25° 271° (W) 18:05:24 29.400- 29.500
STARS 29 May 18:02:35 18:05:42 19° 300° (WNW) 18:08:43 437.465
Cubesat XI-IV 29 May 18:09:29 18:14:43 63° 71° (ENE) 18:20:02 437.490
Cosmos 2499 29 May 18:15:14 18:19:19 14° 310° (NW) 18:22:56 435.465 / 435.565
YUBILEINY 29 May 18:39:08 18:47:52 73° 77° (ENE) 18:56:35 435.215
GOMX 1 29 May 18:42:28 18:44:33 13° 52° (NE) 18:46:52 467.674
BEESAT 2 29 May 18:42:43 18:46:51 85° 306° (NW) 18:51:02 435.950
Cosmos 2491 29 May 18:49:36 18:57:24 38° 85° (E) 19:05:21 435.465 / 435.565
AIST 2 29 May 18:52:26 18:56:26 41° 121° (ESE) 19:00:30 435.215
BRITE-PL 29 May 18:53:21 18:57:15 21° 58° (ENE) 19:01:26 437.365/2234.400
MOZHAYETS 4 29 May 18:55:58 19:00:03 32° 294° (WNW) 19:04:04
HO-68 29 May 19:04:32 19:10:00 25° 52° (NE) 19:15:38 435.675
CUBESAT XI-V 29 May 19:05:47 19:10:10 37° 96° (E) 19:14:33 437.345
PRISM 29 May 19:10:32 19:13:18 17° 90° (E) 19:16:11 437.425
DOVE 4 29 May 19:26:29 19:29:59 19° 58° (ENE) 19:33:39 437.250
BEESAT 3 29 May 19:28:13 19:31:58 33° 321° (NW) 19:35:44 437.485
CUTE-I 29 May 19:28:42 19:33:28 32° 266° (W) 19:38:12 437.470
RS-15 29 May 19:49:55 19:59:45 32° 253° (WSW) 20:09:33 29.354- 29.394
Cosmos 2504 29 May 19:50:01 19:55:37 24° 59° (ENE) 20:01:21 435.465 / 435.565
Cubesat XI-IV 29 May 19:51:14 19:55:20 22° 270° (W) 19:59:20 437.490
STRAND 1 29 May 20:00:54 20:05:55 50° 99° (E) 20:10:56 437.568
GOMX 1 29 May 20:16:25 20:21:38 60° 71° (ENE) 20:27:05 467.674
CINEMA 3 29 May 20:18:02 20:22:03 25° 63° (ENE) 20:26:08 145.822/145.860
CANX-2 29 May 20:18:35 20:22:34 40° 69° (ENE) 20:26:34 2200.000
CUTE 1.7 + AOD 2 29 May 20:21:40 20:25:37 39° 69° (ENE) 20:29:36 437.475
BEESAT 2 29 May 20:22:30 20:25:33 19° 331° (NNW) 20:28:35 435.950
BRITE-PL 29 May 20:29:52 20:35:09 77° 257° (WSW) 20:40:49 437.365/2234.400
AIST 2 29 May 20:31:11 20:35:07 34° 321° (NW) 20:39:02 435.215
AIST 1 29 May 20:33:48 20:37:52 45° 94° (E) 20:42:00
YUBILEINY 29 May 20:36:49 20:44:02 29° 279° (W) 20:51:01 435.215
ZACube-1 29 May 20:38:13 20:40:23 14° 58° (ENE) 20:42:43 437.345
SEEDS 29 May 20:39:09 20:43:12 48° 71° (ENE) 20:47:17 437.485
Oscar 11 29 May 20:42:11 20:45:24 21° 63° (ENE) 20:48:42 145.826/435.025
CUBESAT XI-V 29 May 20:43:23 20:47:32 31° 294° (WNW) 20:51:38 437.345
PRISM 29 May 20:45:02 20:49:06 53° 289° (WNW) 20:53:09 437.425
Cosmos 2491 29 May 20:45:18 20:53:59 59° 287° (WNW) 21:02:43 435.465 / 435.565
COMPASS 1 29 May 20:47:18 20:51:18 48° 71° (ENE) 20:55:21 437.405
CUBEBUG 2 29 May 20:48:37 20:52:24 25° 64° (ENE) 20:56:14 437.445
HO-68 29 May 20:49:48 20:57:00 88° 252° (WSW) 21:04:15 435.675
M-CUBED/EXP-1 PRIME 29 May 20:54:22 20:57:38 55° 107° (ESE) 21:00:54 437.505
AAUSAT CUBESAT 2 29 May 20:56:39 21:00:41 52° 72° (ENE) 21:04:45 437.432
AUBIESAT-1 29 May 20:59:27 21:02:43 55° 107° (ESE) 21:06:00 437.475
DOVE 4 29 May 21:01:51 21:07:06 84° 257° (WSW) 21:12:30 437.250
DELFI C3 29 May 21:03:33 21:06:41 23° 65° (ENE) 21:09:55 145.870
BEESAT 3 29 May 21:09:33 21:11:10 12° 343° (NNW) 21:12:43 437.485
UWE-3 29 May 21:28:26 21:32:51 43° 69° (ENE) 21:37:15 435.000/436.395/437.385
FUNcube-1 29 May 21:30:06 21:34:15 36° 68° (ENE) 21:38:24 145.935
STRAND 1 29 May 21:40:34 21:44:54 28° 298° (WNW) 21:49:10 437.568
HUMSAT D 29 May 21:40:40 21:44:01 23° 64° (ENE) 21:47:26 437.325/437.525
Cosmos 2504 29 May 21:42:44 21:49:58 78° 263° (W) 21:57:09 435.465 / 435.565
AISAT 29 May 21:45:26 21:48:15 17° 59° (ENE) 21:51:12 437.250
50 SAT 29 May 21:52:51 21:55:26 17° 62° (ENE) 21:58:06 437.505
CINEMA 3 29 May 21:54:00 21:58:56 55° 261° (W) 22:03:53 145.822/145.860
CANX-2 29 May 21:55:11 21:58:40 23° 268° (W) 22:02:04 2200.000
GOMX 1 29 May 21:55:55 22:00:12 24° 272° (W) 22:04:30 467.674
CUTE 1.7 + AOD 2 29 May 21:58:11 22:01:42 24° 268° (W) 22:05:09 437.475
UKube-1 29 May 22:07:08 22:11:11 40° 68° (ENE) 22:15:17 .
ZACube-1 29 May 22:11:31 22:16:08 87° 72° (ENE) 22:20:43 437.345
BRITE-PL 29 May 22:12:16 22:14:48 13° 280° (W) 22:17:05 437.365/2234.400
AIST 1 29 May 22:12:30 22:15:48 21° 294° (WNW) 22:19:03
AIST 2 29 May 22:13:01 22:14:56 13° 344° (NNW) 22:16:48 435.215
SEEDS 29 May 22:16:12 22:19:19 19° 270° (W) 22:22:19 437.485
Oscar 11 29 May 22:17:04 22:21:18 50° 261° (W) 22:25:32 145.826/435.025
ISS 29 May 22:17:57 22:18:30 10° 135° (SE) 22:19:10 145.825
DX 1 29 May 22:20:27 22:24:43 58° 71° (ENE) 22:29:04 434.975-435.025
CUBEBUG 2 29 May 22:24:11 22:28:50 50° 261° (W) 22:33:27 437.445
COMPASS 1 29 May 22:24:12 22:27:16 19° 270° (W) 22:30:15 437.405
M-CUBED/EXP-1 PRIME 29 May 22:30:30 22:32:11 13° 305° (NW) 22:33:43 437.505
AAUSAT CUBESAT 2 29 May 22:33:44 22:36:39 18° 270° (W) 22:39:26 437.432
DANDE 29 May 22:34:57 22:41:05 24° 52° (NE) 22:46:31 436.750
AUBIESAT-1 29 May 22:35:31 22:37:12 13° 305° (NW) 22:38:46 437.475
UNISAT 6 29 May 22:36:38 22:38:34 13° 86° (E) 22:40:41 437.425
CUBEBUG 1 29 May 22:36:51 22:40:24 25° 64° (ENE) 22:44:05 437.445
DELFI C3 29 May 22:37:51 22:41:38 38° 263° (W) 22:45:25 145.870
HO-68 29 May 22:40:42 22:45:51 20° 274° (W) 22:50:44 435.675
DOVE 4 29 May 22:42:58 22:45:46 14° 277° (W) 22:48:19 437.250
CUSAT 1 29 May 22:44:35 22:50:50 29° 57° (ENE) 22:56:04 437.405
VELOX 1 29 May 22:47:10 22:51:30 55° 71° (ENE) 22:55:55 145.980
Cosmos 2491 29 May 22:48:05 22:53:22 16° 314° (NW) 22:58:17 435.465 / 435.565
ESTCUBE 1 29 May 23:02:55 23:07:13 49° 70° (ENE) 23:11:36 437.505/2401.250
SPROUT 29 May 23:04:15 23:06:46 16° 60° (ENE) 23:09:26 437.525
UWE-3 29 May 23:05:36 23:09:34 26° 268° (W) 23:13:25 435.000/436.395/437.385
FUNcube-1 29 May 23:06:33 23:10:37 30° 266° (W) 23:14:37 145.935
GONETS M04 29 May 23:08:19 23:16:00 33° 61° (ENE) 23:23:45
TISAT 1 29 May 23:14:53 23:17:14 15° 59° (ENE) 23:19:44 437.305
HUMSAT D 29 May 23:15:25 23:19:33 44° 262° (W) 23:23:41 437.325/437.525
ANTELSAT 29 May 23:18:39 23:22:37 32° 95° (E) 23:26:30 437.575/2403.000
AISAT 29 May 23:19:55 23:24:22 71° 257° (WSW) 23:28:52 437.250
50 SAT 29 May 23:25:53 23:29:48 54° 260° (W) 23:33:43 437.505
QB50P1 29 May 23:33:37 23:36:59 22° 92° (E) 23:40:23 145.935-145.965
POLYITAN 1 29 May 23:37:23 23:40:54 25° 93° (E) 23:44:27 437.675
Cosmos 2504 29 May 23:38:10 23:42:11 15° 284° (WNW) 23:45:51 435.465 / 435.565
BEESAT 2 29 May 23:43:18 23:45:04 12° 18° (NNE) 23:46:54 435.950
UKube-1 29 May 23:43:53 23:47:28 24° 267° (W) 23:51:02 .
TIGRISAT 29 May 23:49:41 23:54:04 64° 101° (E) 23:58:19 435.000
ZACube-1 29 May 23:51:05 23:53:11 13° 275° (W) 23:55:04 437.345
ISS 29 May 23:51:11 23:54:21 50° 152° (SSE) 23:57:32 145.825
AIST 2 29 May 23:54:30 23:55:20 10° 8° (N) 23:56:11 435.215
O/OREOS (USA 219) 29 May 23:58:22 00:02:06 25° 49° (NE) 00:05:52 437.305
DX 1 29 May 23:58:23 00:01:24 18° 270° (W) 00:04:17 434.975-435.025
NANOSAT C BR1 30 May 00:03:15 00:07:21 42° 98° (E) 00:11:24 145.865
ITUPSAT 1 30 May 00:05:39 00:06:56 11° 53° (NE) 00:08:25 437.325
BEESAT 30 May 00:10:30 00:12:22 13° 54° (NE) 00:14:26 436.000
Cosmos 2499 30 May 00:10:49 00:14:05 14° 49° (NE) 00:17:41 435.465 / 435.565
UNISAT 6 30 May 00:11:37 00:16:03 77° 285° (WNW) 00:20:21 437.425
CUBEBUG 1 30 May 00:12:26 00:16:36 41° 262° (W) 00:20:48 437.445
QB50P2 30 May 00:13:42 00:17:57 56° 100° (E) 00:22:09 145.880/145.840
DANDE 30 May 00:17:44 00:25:44 90° 67° (ENE) 00:31:58 436.750
SWISSCUBE 30 May 00:18:35 00:21:16 16° 57° (ENE) 00:24:08 437.505
DUCHIFAT 1 30 May 00:24:16 00:28:33 68° 102° (ESE) 00:32:47 145.980
POPSAT HIP 1 30 May 00:25:07 00:29:25 71° 102° (ESE) 00:33:40 437.405
VELOX 1 30 May 00:25:14 00:28:27 19° 270° (W) 00:31:34 145.980
CUSAT 1 30 May 00:27:06 00:34:18 64° 265° (W) 00:39:48 437.405
BEESAT 3 30 May 00:27:21 00:30:26 20° 30° (NNE) 00:33:32 437.485
BUGSAT 1 30 May 00:32:15 00:36:30 59° 101° (E) 00:40:41 437.445
SPROUT 30 May 00:38:01 00:42:22 74° 258° (WSW) 00:46:44 437.525
ESTCUBE 1 30 May 00:40:55 00:44:23 21° 269° (W) 00:47:49 437.505/2401.250
TISAT 1 30 May 00:48:14 00:52:30 76° 258° (WSW) 00:56:48 437.305
PCSat 30 May 00:50:51 00:56:05 53° 119° (ESE) 01:01:24 145.827
ANTELSAT 30 May 00:55:29 00:59:22 30° 294° (WNW) 01:03:07 437.575/2403.000
GONETS M04 30 May 01:04:57 01:13:42 70° 266° (W) 01:22:19
QB50P1 30 May 01:08:58 01:13:04 43° 291° (WNW) 01:17:05 145.935-145.965
POLYITAN 1 30 May 01:12:56 01:16:57 39° 292° (WNW) 01:20:55 437.675
BEESAT 2 30 May 01:20:27 01:24:19 36° 40° (NE) 01:28:08 435.950
Oscar 19 30 May 01:22:48 01:25:20 14° 85° (E) 01:28:06 437.125/150
TIGRISAT 30 May 01:27:25 01:30:23 17° 300° (WNW) 01:33:11 435.000
ISS 30 May 01:27:32 01:30:46 59° 351° (N) 01:34:00 145.825
AIST 2 30 May 01:32:06 01:35:26 22° 31° (NNE) 01:38:47 435.215
O/OREOS (USA 219) 30 May 01:37:27 01:41:46 47° 250° (WSW) 01:46:04 437.305
ITUPSAT 1 30 May 01:39:17 01:43:59 64° 72° (ENE) 01:48:45 437.325
NANOSAT C BR1 30 May 01:39:31 01:42:59 24° 296° (WNW) 01:46:20 145.865
BEESAT 30 May 01:44:44 01:49:28 73° 72° (ENE) 01:54:15 436.000
QB50P2 30 May 01:50:25 01:53:29 19° 299° (WNW) 01:56:27 145.880/145.840
UNISAT 6 30 May 01:50:36 01:52:06 11° 304° (NW) 01:53:25 437.425
STARS 30 May 01:52:22 01:54:33 14° 57° (ENE) 01:56:54 437.465
SWISSCUBE 30 May 01:53:47 01:58:32 87° 252° (WSW) 02:03:21 437.505
DUCHIFAT 1 30 May 02:01:12 02:03:54 16° 300° (WNW) 02:06:28 145.980
Cosmos 2499 30 May 02:02:05 02:09:06 62° 75° (ENE) 02:16:11 435.465 / 435.565
POPSAT HIP 1 30 May 02:02:10 02:04:49 16° 300° (WNW) 02:07:18 437.405
DANDE 30 May 02:02:21 02:07:44 21° 282° (WNW) 02:12:11 436.750
BEESAT 3 30 May 02:04:50 02:08:57 86° 233° (SW) 02:13:00 437.485
BUGSAT 1 30 May 02:08:35 02:11:35 18° 299° (WNW) 02:14:28 437.445
CUSAT 1 30 May 02:12:39 02:15:14 12° 288° (WNW) 02:17:18 437.405
KKS-1 30 May 02:30:33 02:34:46 42° 68° (ENE) 02:39:03 437.445
PCSat 30 May 02:34:49 02:39:46 35° 319° (NW) 02:44:45 145.827
Gurwin Techsat 1B 30 May 02:41:01 02:44:58 21° 89° (E) 02:49:03 435.225
VERMONT LUNAR 30 May 02:45:02 02:47:12 17° 175° (S) 02:49:23 437.305
SO-50 30 May 02:54:02 02:58:25 40° 120° (ESE) 03:03:00 436.795
BEESAT 2 30 May 02:58:37 03:02:24 34° 240° (WSW) 03:06:04 435.950
Oscar 19 30 May 03:00:21 03:05:33 90° 162° (SSE) 03:10:42 437.125/150
GONETS M04 30 May 03:03:56 03:09:01 16° 287° (WNW) 03:13:39
ISS 30 May 03:04:10 03:07:24 65° 11° (NNE) 03:10:40 145.825
AIST 2 30 May 03:10:16 03:14:32 81° 233° (SW) 03:18:43 435.215
ITUPSAT 1 30 May 03:19:05 03:22:24 18° 271° (W) 03:25:35 437.325
ITAMSAT 1 30 May 03:22:02 03:27:05 46° 99° (E) 03:32:07 435.822/435.867
BEESAT 30 May 03:24:57 03:27:55 16° 273° (W) 03:30:44 436.000
STARS 30 May 03:25:56 03:30:24 90° 254° (WSW) 03:34:54 437.465
SWISSCUBE 30 May 03:35:16 03:37:14 12° 275° (W) 03:38:57 437.505
BEESAT 3 30 May 03:44:50 03:46:19 11° 249° (WSW) 03:47:36 437.485
AO-7 30 May 03:54:32 04:00:27 22° 87° (E) 04:06:41 29.400- 29.500
PHONESAT 2.4 30 May 03:55:16 03:57:46 18° 174° (S) 04:00:16 2401.200-2431.200
Cosmos 2499 30 May 03:55:57 04:01:48 28° 276° (W) 04:07:33 435.465 / 435.565
KKS-1 30 May 04:07:51 04:11:35 25° 267° (W) 04:15:17 437.445
Gurwin Techsat 1B 30 May 04:20:11 04:25:27 64° 290° (WNW) 04:30:43 435.225
VERMONT LUNAR 30 May 04:21:48 04:23:42 15° 191° (SSW) 04:25:35 437.305
PCSat 30 May 04:21:58 04:24:53 14° 344° (NNW) 04:27:43 145.827
MOZHAYETS 4 30 May 04:24:31 04:28:57 52° 70° (ENE) 04:33:23
SO-50 30 May 04:34:28 04:39:00 41° 321° (NW) 04:43:40 436.795
ISS 30 May 04:40:39 04:43:45 40° 211° (SSW) 04:46:50 145.825
Oscar 19 30 May 04:40:59 04:44:16 17° 304° (NW) 04:47:22 437.125/150
JAS-2 30 May 04:44:16 04:49:15 46° 98° (E) 04:54:24 435.910
HORYU 2 30 May 04:47:19 04:51:39 50° 100° (E) 04:55:57 437.375
AIST 2 30 May 04:51:09 04:52:27 11° 250° (WSW) 04:53:32 435.215
Cosmos 2491 30 May 04:53:54 05:00:48 25° 56° (NE) 05:07:54 435.465 / 435.565
ITAMSAT 1 30 May 05:01:53 05:06:26 30° 297° (WNW) 05:10:54 435.822/435.867
STARS 30 May 05:06:00 05:07:36 11° 275° (W) 05:08:59 437.465
PHONESAT 2.4 30 May 05:32:52 05:35:12 17° 190° (S) 05:37:31 2401.200-2431.200
STRAND 1 30 May 05:43:58 05:47:25 19° 58° (ENE) 05:51:02 437.568
AO-7 30 May 05:46:10 05:54:37 85° 109° (ESE) 06:03:02 29.400- 29.500
YUBILEINY 30 May 05:53:13 05:58:01 17° 74° (ENE) 06:03:17 435.215
Gurwin Techsat 1B 30 May 06:02:12 06:04:32 13° 308° (NW) 06:06:40 435.225
MOZHAYETS 4 30 May 06:03:00 06:06:30 21° 270° (W) 06:09:54
CUTE-I 30 May 06:03:03 06:04:48 12° 83° (E) 06:06:50 437.470
PRISM 30 May 06:04:37 06:07:50 23° 64° (ENE) 06:11:08 437.425
PCSat 30 May 06:08:21 06:10:41 13° 10° (N) 06:13:04 145.827
M-CUBED/EXP-1 PRIME 30 May 06:12:53 06:15:41 20° 59° (ENE) 06:18:26 437.505
CUBESAT XI-V 30 May 06:13:07 06:17:38 57° 71° (ENE) 06:22:13 437.345
AUBIESAT-1 30 May 06:17:38 06:20:21 19° 59° (ENE) 06:23:02 437.475
SO-50 30 May 06:17:43 06:20:50 16° 344° (NNW) 06:23:56 436.795
Cubesat XI-IV 30 May 06:23:23 06:26:58 18° 88° (E) 06:30:41 437.490
HORYU 2 30 May 06:24:35 06:28:01 22° 298° (WNW) 06:31:22 437.375
JAS-2 30 May 06:29:53 06:34:17 28° 298° (WNW) 06:38:40 435.910
